Regional Weather Roundup
Issued by NWS

Home | Current Version | Previous Version | Text Only | Print | Product List | Glossary Off
Versions: 1 2 3 4 5 6 7 8 9 10 11 12 13 14 15 16 17 18 19 20 21 22 23 24 25 26 27 28 29 30 31 32 33 34 35 36 37 38 39 40 41 42 43 44 45 46 47 48 49 50

000
ASUS43 KLMK 192302
RWRKY
KENTUCKY REGIONAL WEATHER ROUNDUP
NATIONAL WEATHER SERVICE LOUISVILLE KY
600 PM EST FRI JAN 19 2018

NOTE "FAIR" INDICATES FEW OR NO CLOUDS BELOW 12,000 FEET
WITH NO SIGNIFICANT WEATHER AND/OR OBSTRUCTIONS TO VISIBILITY.

KYZ001>023-026-027-061>063-070>075-200000-
WESTERN AND SOUTH CENTRAL KENTUCKY

CITY           SKY/WX    TMP DP  RH WIND       PRES   REMARKS
PADUCAH        MOCLDY    40  19  43 S9        30.10S WCI  34
HENDERSON      FAIR      37  20  50 S9        30.08F WCI  30
OWENSBORO      FAIR      36  22  56 S12       30.10F WCI  28
HOPKINSVILLE   CLOUDY    44  17  34 S8        30.13F
BOWLING GREEN  FAIR      40  23  50 S8        30.16R WCI  34
GLASGOW        NOT AVBL
$$

KYZ024-025-028>034-038-045-046-053-200000-
NORTH CENTRAL KENTUCKY

CITY           SKY/WX    TMP DP  RH WIND       PRES   REMARKS
LOUISVILLE/SDF MOCLDY    41  22  46 S13       30.09F
LOUISVILLE/LOU FAIR      41  23  48 S14       30.10F
FORT KNOX      PTCLDY    37  21  52 S13       30.12S WCI  29
$$

KYZ035>037-039>044-047>052-055>060-089>105-200000-
NORTHEAST KENTUCKY

CITY           SKY/WX    TMP DP  RH WIND       PRES   REMARKS
LEXINGTON      FAIR      37  19  48 S12       30.11F WCI  29
COVINGTON      FAIR      36  21  54 S12       30.04F WCI  28
FRANKFORT      FAIR      38  17  42 S12       30.09F WCI  30
$$

KYZ054-064>069-076>088-106>120-200000-
SOUTHEAST KENTUCKY

CITY           SKY/WX    TMP DP  RH WIND       PRES   REMARKS
JACKSON        FAIR      39  12  33 SW5       30.12S
LONDON         FAIR      42  11  28 S5        30.14S
SOMERSET       NOT AVBL
MIDDLESBORO    FAIR      37  17  44 CALM      30.19S
MONTICELLO     FAIR      38  17  42 W14       30.18S WCI  30
$$





USA.gov is the U.S. government's official web portal to all federal, state and local government web resources and services.